Regional Weather Roundup
Issued by NWS

Home | Current Version | Previous Version | Graphics & Text | Print | Product List | Glossary On
Versions: 1 2 3 4 5 6 7 8 9 10 11 12 13 14 15 16 17 18 19 20 21 22 23 24 25 26 27 28 29 30 31
000
ASUS43 KDMX 291907
RWRIA

WEATHER ROUNDUP FOR IOWA
NATIONAL WEATHER SERVICE DES MOINES IA
200 PM CDT WED OCT 29 2014

NOTE: "FAIR" INDICATES FEW OR NO CLOUDS BELOW 12,000 FEET WITH NO
SIGNIFICANT WEATHER AND/OR OBSTRUCTIONS TO VISIBILITY.

* - THESE STATIONS ARE NOT NWS STATIONS...THUS NOT UNDER NWS
QUALITY CONTROL.  THEY ALSO DO NOT REPORT WEATHER SUCH
AS PRECIPITATION OR FOG.

IAZ001>003-012>014-020>022-031>034-043>046-292000-
   NORTHWEST IOWA

CITY           SKY/WX    TMP DP  RH WIND       PRES   REMARKS
CARROLL *      SUNNY     52  32  46 NW8       30.16F
CHEROKEE *     SUNNY     48  32  53 NW3       30.15F
DENISON *      SUNNY     50  32  50 VRB3      30.15F
LE MARS *      SUNNY     50  32  50 SW6G12    30.16F
ORANGE CITY *  SUNNY     50  30  46 W6        30.15F
SHELDON *      SUNNY     48  32  53 CALM      30.13F
SIOUX CITY     SUNNY     51  32  48 VRB5      30.16F
SPENCER        SUNNY     49  31  49 W9        30.15F
STORM LAKE *   SUNNY     48  32  53 W8        30.16F
$$

IAZ055>058-069>071-079>083-090>094-292000-
   SOUTHWEST IOWA

CITY           SKY/WX    TMP DP  RH WIND       PRES   REMARKS
ATLANTIC *     SUNNY     52  34  50 VRB7      30.18F
AUDUBON *      SUNNY     52  28  40 W3        30.18F
CLARINDA *     SUNNY     54  32  43 NW6G12    30.21F
COUNCIL BLFS * SUNNY     52  32  46 SW6       30.17F
CRESTON *      SUNNY     50  34  53 W6        30.18F
HARLAN  *      SUNNY     50  32  50 VRB6      30.21F
LAMONI         SUNNY     52  35  52 NW9       30.19F
RED OAK *      SUNNY     52  32  46 VRB6      30.19F
SHENANDOAH *   SUNNY     54  32  43 VRB6      30.20F
$$

IAZ047>049-059>061-072>074-084-292000-
   CENTRAL IOWA

CITY           SKY/WX    TMP DP  RH WIND       PRES   REMARKS
AMES           SUNNY     50  32  50 W7        30.17F
ANKENY *       SUNNY     50  34  53 NW9       30.18F
CHARITON *     SUNNY     50  34  53 W8G15     30.18F
DES MOINES     MOSUNNY   52  34  50 NW8       30.18F
GRINNELL*      PTSUNNY   46  34  61 W7        30.18F
KNOXVILLE *    SUNNY     50  32  50 NW9       30.17F
MARSHALLTOWN   CLOUDY    46  34  62 W9        30.17F
PELLA *        SUNNY     50  34  53 N8        30.19F
PERRY *          N/A     52  34  50 NW3       30.17F
$$

IAZ004>006-015-016-023>025-035-036-292000-
   NORTH CENTRAL IOWA

CITY           SKY/WX    TMP DP  RH WIND       PRES   REMARKS
ALGONA *       SUNNY     48  34  57 NW6G12    30.16F
CLARION *      SUNNY     48  34  57 CALM      30.16F
ESTHERVILLE    SUNNY     47  31  53 NW5       30.14F
FORT DODGE *   SUNNY     50  34  53 NW5       30.16F
MASON CITY     MOSUNNY   43  32  65 NW7       30.17F
FOREST CITY *  SUNNY     45  34  65 NW8       30.16S
IOWA FALLS *   PTSUNNY   46  34  61 W9        30.17F
$$

IAZ007>011-017>019-026>030-037>042-050>054-066-292000-
   NORTHEAST IOWA

CITY           SKY/WX    TMP DP  RH WIND       PRES   REMARKS
CEDAR RAPIDS   SUNNY     50  33  52 NW13      30.14F
CHARLES CITY * CLOUDY    46  34  61 W7G15     30.16S
CLINTON *      CLOUDY    48  30  49 NW10      30.16S
DECORAH *      CLOUDY    43  32  65 VRB5G13   30.12F
DUBUQUE        CLOUDY    44  33  65 NW9       30.13F
MONTICELLO *   PTSUNNY   48  32  53 NW13      30.13F
OELWEIN *      MOSUNNY   45  32  61 NW10G16   30.15S
WATERLOO       SUNNY     47  32  56 NW8       30.15F
$$

IAZ064-065-067-068-078-292000-
   EAST CENTRAL IOWA

CITY           SKY/WX    TMP DP  RH WIND       PRES   REMARKS
DAVENPORT      MOSUNNY   50  30  46 N12       30.14S
IOWA CITY      SUNNY     50  33  52 NW15      30.16F
MT. PLEASANT * PTSUNNY   50  34  53 NW12G18   30.17F
MUSCATINE *    PTSUNNY   52  32  46 W10       30.16F
QUAD CITIES    MOSUNNY   50  31  48 W10       30.14S
$$

IAZ062-063-075>077-085>089-095>099-292000-
   SOUTHEAST IOWA

CITY           SKY/WX    TMP DP  RH WIND       PRES   REMARKS
BURLINGTON     CLOUDY    51  34  52 NW15      30.16F
FAIRFIELD *    PTSUNNY   50  34  53 W14G20    30.17F
FORT MADISON * PTSUNNY   55  36  47 W8G17     30.17F
KEOKUK *       MOSUNNY   52  36  54 NW13      30.16F
OSKALOOSA *      N/A     50  32  50 W10G17    30.18F
CENTERVILLE *  SUNNY     52  34  50 NW8       30.19F
OTTUMWA        LGT RAIN  50  34  54 NW6       30.17F
WASHINGTON *   PTSUNNY   50  34  53 NW16G23   30.17S
$$

ABBREVIATIONS USED IN REMARKS
   TC - TEMPERATURES IN CELSIUS
  WCI - WIND CHILL INDEX
   HX - HEAT INDEX
  VSB - VISIBILITY
$$




USA.gov is the U.S. government's official web portal to all federal, state and local government web resources and services.